sat.trackr.live / text

‹ back to catalog

STARLINK-35800

NORAD 66291 · 2025-247AC

PAYLOAD ACTIVE UNKNOWN

§ Identity

Operator
Country
US
Launch date
2025-10-31
Launch site
AFWTR
Launch vehicle
Mass (kg)
RCS (m²)

Purposes: comms

External: N2YO · Heavens-Above · Gunter

§ Orbital elements

Epoch: 2026-09-20T13:00:18.340416Z

Period
93.85 min
Inclination
53.1615°
Eccentricity
0.0001178
Mean motion
15.34407661 rev/d
Perigee alt
461.9 km
Apogee alt
463.5 km
Semi-major
6,840.8 km
B*
7.9126e-4
RAAN
1.6015°
Arg perigee
82.2422°
Mean anomaly
277.8715°
Rev number
5,097

§ Raw data

STARLINK-358001 66291U 25247AC  26263.54187894  .00026459  00000+0  79126-3 0  99922 66291  53.1615   1.6015 0001178  82.2422 277.8715 15.34407661 50972

JSON: /api/v1/satellites/66291 · /tle

For live sub-satellite position, see the globe view (requires WebGL).

§ Visibility from observer

Set your observer location to see the next 7 days of passes ≥ 10°. The values pass through the URL so the page stays shareable.

No JS? Fill the form by hand. The geolocation button needs JavaScript.